Regional Weather Roundup
Issued by NWS

Home | Current Version | Previous Version | Text Only | Print | Product List | Glossary Off
Versions: 1 2 3 4 5 6 7 8 9 10 11 12 13 14 15 16 17 18 19 20 21 22 23 24 25 26 27 28 29 30 31 32 33 34 35 36 37 38 39 40 41 42 43 44 45 46 47 48 49 50

000
ASUS43 KDMX 201206
RWRIA

WEATHER ROUNDUP FOR IOWA
NATIONAL WEATHER SERVICE DES MOINES IA
600 AM CST MON NOV 20 2017

NOTE: "FAIR" INDICATES FEW OR NO CLOUDS BELOW 12,000 FEET WITH NO
SIGNIFICANT WEATHER AND/OR OBSTRUCTIONS TO VISIBILITY.

* - THESE STATIONS ARE NOT NWS STATIONS...THUS NOT UNDER NWS
QUALITY CONTROL.  THEY ALSO DO NOT REPORT WEATHER SUCH
AS PRECIPITATION OR FOG.

IAZ001>003-012>014-020>022-031>034-043>046-201300-
   NORTHWEST IOWA

CITY           SKY/WX    TMP DP  RH WIND       PRES   REMARKS
CARROLL *      CLEAR     37  27  65 SW22      29.74F WCI  27
CHEROKEE *     CLOUDY    31  26  79 S6        29.70F WCI  26
DENISON *      CLEAR     36  25  64 S10       29.76F WCI  28
LE MARS *      CLOUDY    32  27  80 S10       29.68F WCI  24
ORANGE CITY *  CLOUDY    34  28  80 S9        29.67F WCI  26
SHELDON *      CLOUDY    30  25  80 S7        29.65F WCI  23
SIOUX CITY     CLOUDY    27  23  85 SE9       29.70F WCI  18
6HR MIN TEMP:  26; 6HR MAX TEMP:  31;

SPENCER        CLOUDY    28  22  78 S7        29.68F WCI  21
6HR MIN TEMP:  26; 6HR MAX TEMP:  35;

STORM LAKE *   CLEAR     32  25  74 SW13      29.70F WCI  22
$$

IAZ055>058-069>071-079>083-090>094-201300-
   SOUTHWEST IOWA

CITY           SKY/WX    TMP DP  RH WIND       PRES   REMARKS
ATLANTIC *     CLOUDY    34  28  80 SW12      29.80F WCI  25
AUDUBON *      CLEAR     37  28  70 S10       29.78F WCI  30
CLARINDA *       N/A     39  28  65 S9        29.86F WCI  33
COUNCIL BLFS * CLEAR     39  27  60 S10       29.78F WCI  32
CRESTON *      CLOUDY    36  28  75 SW13      29.85S WCI  27
HARLAN  *      CLEAR     34  28  80 S7        29.81F WCI  28
LAMONI         CLOUDY    37  28  70 S13       29.86F WCI  29
6HR MIN TEMP:  34; 6HR MAX TEMP:  39;

RED OAK *      CLOUDY    34  28  80 S8        29.83F WCI  27
SHENANDOAH *   PTCLDY    37  27  65 S9        29.83F WCI  31
$$

IAZ047>049-059>061-072>074-084-201300-
   CENTRAL IOWA

CITY           SKY/WX    TMP DP  RH WIND       PRES   REMARKS
AMES           CLEAR     31  27  85 S5        29.81F WCI  26
6HR MIN TEMP:  31; 6HR MAX TEMP:  37;

ANKENY *       CLEAR     36  28  75 S7        29.84F WCI  30
BOONE *        CLEAR     37  27  65 S10       29.78F WCI  30
CHARITON *     CLOUDY    36  28  75 S14       29.86S WCI  27
DES MOINES     CLOUDY    36  27  69 S9        29.83F WCI  29
6HR MIN TEMP:  36; 6HR MAX TEMP:  41;

GRINNELL*      PTCLDY    36  29  75 S12       29.85F WCI  28
KNOXVILLE *    PTCLDY    41  27  56 SW16G23   29.83F
MARSHALLTOWN   CLEAR     36  28  73 S12       29.82S WCI  28
6HR MIN TEMP:  35; 6HR MAX TEMP:  37;

NEWTON *       CLOUDY    37  28  70 SW13      29.84S WCI  29
PELLA *        CLOUDY    40  28  63 SW9G17    29.87S WCI  34
PERRY *          N/A     32  28  84 S10       29.79F WCI  23
$$

IAZ004>006-015-016-023>025-035-036-201300-
   NORTH CENTRAL IOWA

CITY           SKY/WX    TMP DP  RH WIND       PRES   REMARKS
ALGONA *       CLOUDY    32  28  86 S16       29.71F WCI  21
CLARION *      CLEAR     30  30 100 S13       29.75F WCI  20
ESTHERVILLE    CLOUDY    25  23  92 S12       29.68F WCI  14
6HR MIN TEMP:  24; 6HR MAX TEMP:  36;

FORT DODGE *   CLEAR     34  26  72 S10       29.75F WCI  26
MASON CITY     CLOUDY    30  25  81 S7        29.76F WCI  23
6HR MIN TEMP:  29; 6HR MAX TEMP:  36;

FOREST CITY *    N/A     30  28  93 S7        29.74F WCI  23
WEBSTER CITY * CLEAR     30  27  86 S12       29.75F WCI  21
IOWA FALLS *     N/A     33  28  81 S8        29.80F WCI  26
$$

IAZ007>011-017>019-026>030-037>042-050>054-066-201300-
   NORTHEAST IOWA

CITY           SKY/WX    TMP DP  RH WIND       PRES   REMARKS
CEDAR RAPIDS   CLEAR     33  28  81 S9        29.86S WCI  25
6HR MIN TEMP:  30; 6HR MAX TEMP:  34;

CHARLES CITY * CLOUDY    30  28  93 S7        29.79F WCI  23
CLINTON *      CLOUDY    31  26  82 S8        29.92F WCI  23
DECORAH *      CLOUDY    34  27  75 S6        29.78F WCI  29
DUBUQUE        CLEAR     28  25  88 S13       29.86F WCI  17
6HR MIN TEMP:  28; 6HR MAX TEMP:  32;

MONTICELLO *   CLEAR     28  25  86 SE8       29.88S WCI  20
OELWEIN *      CLEAR     28  28 100 S8        29.82F WCI  20
WATERLOO       CLEAR     29  25  85 S5        29.82F WCI  24
6HR MIN TEMP:  29; 6HR MAX TEMP:  36;

$$

IAZ064-065-067-068-078-201300-
   EAST CENTRAL IOWA

CITY           SKY/WX    TMP DP  RH WIND       PRES   REMARKS
DAVENPORT      CLOUDY    34  26  72 S9        29.93F WCI  27
6HR MIN TEMP:  33; 6HR MAX TEMP:  35;

IOWA CITY      PTCLDY    34  27  75 S7        29.91S WCI  28
6HR MIN TEMP:  32; 6HR MAX TEMP:  36;

MT. PLEASANT * CLEAR     34  28  78 S13       29.92F WCI  25
MUSCATINE *    CLOUDY    37  28  70 SE7       29.92F WCI  32
QUAD CITIES    CLOUDY    36  26  67 SW7       29.92F WCI  30
6HR MIN TEMP:  34; 6HR MAX TEMP:  37;

$$

IAZ062-063-075>077-085>089-095>099-201300-
   SOUTHEAST IOWA

CITY           SKY/WX    TMP DP  RH WIND       PRES   REMARKS
BURLINGTON     CLOUDY    36  29  75 S14       29.94F WCI  27
6HR MIN TEMP:  33; 6HR MAX TEMP:  36;

FAIRFIELD *    CLOUDY    36  28  75 S9        29.89F WCI  29
FORT MADISON * CLOUDY    39  30  70 S13       29.95S WCI  32
KEOKUK *       CLEAR     37  28  70 SW12G17   29.95S WCI  30
OSKALOOSA *      N/A     38  29  70 SW16      29.87F WCI  29
OTTUMWA        CLOUDY    41  28  60 SW15      29.87F
6HR MIN TEMP:  33; 6HR MAX TEMP:  41;

WASHINGTON *   CLOUDY    34  30  86 S8        29.91S WCI  27
$$

ABBREVIATIONS USED IN REMARKS
   TC - TEMPERATURES IN CELSIUS
  WCI - WIND CHILL INDEX
   HX - HEAT INDEX
  VSB - VISIBILITY
$$





USA.gov is the U.S. government's official web portal to all federal, state and local government web resources and services.